Provo, UT

7:36 PM MST on February 07, 2016 (GMT -0700)
Provo Municipal

Weather History for KPVU - December, 2012

Change the Weather History Date:

Tuesday, December 25, 2012

  Actual Average Record
Temperature  
Mean Temperature 22 °F -  
Max Temperature 28 °F 33 °F 44 °F (2005)
Min Temperature 17 °F 19 °F 1 °F (1990)
Degree Days  
Heating Degree Days 42    
Moisture  
Dew Point 19 °F    
Average Humidity 87    
Maximum Humidity 100    
Minimum Humidity 69    
Precipitation  
Precipitation 0.00 in - - ()
Sea Level Pressure  
Sea Level Pressure 30.10 in    
Wind  
Wind Speed 2 mph (East)    
Max Wind Speed 6 mph    
Max Gust Speed -    
Visibility 11 miles    
Events      
Averages and records for this station are not official NWS values.
T = Trace of Precipitation, MM = Missing Value Source: NWS Daily Summary

Daily Weather History Graph

Daily Weather History Graph

Search for Another Location

Airport or City:

Trip Planner

Search our weather history database for the weather conditions in past years. The results will help you decide how hot, cold, wet, or windy it might be!

Date:

Astronomy

Dec. 25, 2012 Rise Set
Actual Time 7:47 AM MST 5:06 PM MST
Civil Twilight 7:17 AM MST 5:37 PM MST
Nautical Twilight 6:42 AM MST 6:11 PM MST
Astronomical Twilight 6:09 AM MST 6:44 PM MST
Moon 3:17 PM MST (12/25) 5:23 AM MST (12/25)
Length of Visible Light 10h 20m
Length of Day
9h 18m
Waxing Gibbous, 94% of the Moon is Illuminated
Dec 25
Waxing Gibbous
Dec 28
Full
Jan 4
Last Quarter
Jan 11
New
Jan 18
First Quarter

Hourly Weather History & Observations

Time (MST) Temp. Windchill Dew Point Humidity Pressure Visibility Wind Dir Wind Speed Gust Speed Precip Events Conditions
12:15 AM 24.8 °F 19.1 °F 19.4 °F 80% 30.09 in 10.0 mi North 4.6 mph - N/A   Clear
12:35 AM 21.2 °F - 17.6 °F 86% 30.10 in 10.0 mi Calm Calm - N/A   Partly Cloudy
12:55 AM 19.4 °F - 15.8 °F 86% 30.11 in 10.0 mi Calm Calm - N/A   Mostly Cloudy
1:15 AM 21.2 °F 16.4 °F 19.4 °F 93% 30.11 in 10.0 mi East 3.5 mph - N/A   Mostly Cloudy
1:35 AM 21.2 °F 13.6 °F 19.4 °F 93% 30.12 in 10.0 mi NE 5.8 mph - N/A   Mostly Cloudy
1:55 AM 21.2 °F - 19.4 °F 93% 30.13 in 10.0 mi Calm Calm - N/A   Partly Cloudy
2:15 AM 19.4 °F - 17.6 °F 93% 30.13 in 10.0 mi Calm Calm - N/A   Clear
2:35 AM 19.4 °F - 17.6 °F 93% 30.15 in 10.0 mi Calm Calm - N/A   Mostly Cloudy
2:55 AM 19.4 °F - 17.6 °F 93% 30.14 in 10.0 mi Calm Calm - N/A   Partly Cloudy
3:15 AM 17.6 °F 9.3 °F 17.6 °F 100% 30.15 in 10.0 mi East 5.8 mph - N/A   Clear
3:35 AM 19.4 °F 14.3 °F 17.6 °F 93% 30.15 in 10.0 mi NE 3.5 mph - N/A   Clear
3:55 AM 21.2 °F - 17.6 °F 86% 30.15 in 10.0 mi Calm Calm - N/A   Clear
4:15 AM 19.4 °F - 15.8 °F 86% 30.16 in 10.0 mi Calm Calm - N/A   Clear
4:35 AM 19.4 °F - 17.6 °F 93% 30.16 in 10.0 mi Calm Calm - N/A   Partly Cloudy
4:55 AM 17.6 °F - 15.8 °F 93% 30.16 in 10.0 mi Calm Calm - N/A   Scattered Clouds
5:15 AM 21.2 °F - 19.4 °F 93% 30.16 in 10.0 mi Calm Calm - N/A   Mostly Cloudy
5:35 AM 24.8 °F - 21.2 °F 86% 30.16 in 10.0 mi Calm Calm - N/A   Overcast
5:55 AM 24.8 °F - 19.4 °F 80% 30.17 in 10.0 mi Calm Calm - N/A   Overcast
6:35 AM 24.8 °F 17.9 °F 21.2 °F 86% 30.19 in 10.0 mi ESE 5.8 mph - N/A   Overcast
6:50 AM 24.8 °F 19.1 °F 21.2 °F 86% 30.20 in 10.0 mi Variable 4.6 mph - N/A   Overcast
7:50 AM 24.8 °F 17.9 °F 19.4 °F 80% 30.20 in 10.0 mi Variable 5.8 mph - N/A   Overcast
9:50 AM 26.6 °F - 23.0 °F 86% 30.22 in 15.0 mi Calm Calm - N/A   Mostly Cloudy
10:55 AM 26.6 °F 21.2 °F 19.4 °F 74% 30.21 in 15.0 mi SW 4.6 mph - N/A   Scattered Clouds
11:48 AM 26.6 °F - 21.2 °F 80% 30.19 in 15.0 mi Calm Calm - N/A   Scattered Clouds
12:50 PM 26.6 °F - 19.4 °F 74% 30.16 in 15.0 mi Calm Calm - N/A   Mostly Cloudy
2:56 PM 28.4 °F 24.6 °F 19.4 °F 69% 30.12 in 15.0 mi SE 3.5 mph - N/A   Scattered Clouds
3:49 PM 26.6 °F 21.2 °F 19.4 °F 74% 30.11 in 15.0 mi SSE 4.6 mph - N/A   Scattered Clouds
4:51 PM 24.8 °F - 17.6 °F 74% 30.10 in 15.0 mi Calm Calm - N/A   Mostly Cloudy
5:47 PM 23.0 °F - 19.4 °F 86% 30.07 in 15.0 mi Calm Calm - N/A   Mostly Cloudy
6:49 PM 23.0 °F - 19.4 °F 86% 30.05 in 15.0 mi Calm Calm - N/A   Mostly Cloudy
7:47 PM 21.2 °F - 17.6 °F 86% 30.02 in 15.0 mi Calm Calm - N/A   Mostly Cloudy
8:49 PM 19.4 °F - 17.6 °F 93% 29.99 in 15.0 mi Calm Calm - N/A   Mostly Cloudy
9:15 PM 19.4 °F - 15.8 °F 86% 29.99 in 10.0 mi Calm Calm - N/A   Clear
9:55 PM 19.4 °F 14.3 °F 17.6 °F 93% 29.98 in 10.0 mi ENE 3.5 mph - N/A   Scattered Clouds
10:15 PM 19.4 °F 14.3 °F 17.6 °F 93% 29.97 in 10.0 mi ENE 3.5 mph - N/A   Partly Cloudy
10:35 PM 21.2 °F - 17.6 °F 86% 29.96 in 10.0 mi Calm Calm - N/A   Partly Cloudy
10:55 PM 21.2 °F - 19.4 °F 93% 29.96 in 10.0 mi Calm Calm - N/A   Partly Cloudy
11:15 PM 21.2 °F - 17.6 °F 86% 29.95 in 10.0 mi Calm Calm - N/A   Clear
11:35 PM 21.2 °F - 17.6 °F 86% 29.95 in 10.0 mi Calm Calm - N/A   Partly Cloudy
11:55 PM 21.2 °F - 17.6 °F 86% 29.94 in 10.0 mi Calm Calm - N/A   Mostly Cloudy